Simultaneous Nadir Overpasses (SNOs) Predictions

Prediction of SNOs between METOP-A and NOAA-19 Satellite Orbit:

Table of predicted SNOs for the next 14.0 days since TLE Epoch: 1/13/2012
Index Date Time (METOP-A) METOP-A Lat,Lon NOAA-19 Lat,Lon Distance(km) Time Diff (sec)
1 01/19/2012 13:42:19 76.12, -25.03 76.11, -41.34 433.99 16
2 01/19/2012 14:33:26 -74.93, 138.59 -74.94, 129.66 257.86 47
3 01/19/2012 15:24:27 73.90, -56.77 73.91, -60.37 110.92 65
4 01/19/2012 16:15:23 -73.20, 108.93 -73.22, 108.51 13.90 74
5 01/19/2012 17:06:05 73.09, -83.98 73.10, -83.98 1.37 54
6 01/19/2012 17:56:47 -73.08, 83.34 -73.10, 83.26 2.92 35
7 01/19/2012 18:47:27 73.07,-109.36 73.07,-109.45 2.91 11
8 01/19/2012 19:38:10 -73.02, 57.85 -73.02, 57.90 1.86 6
9 01/19/2012 20:28:50
